This demonstration page uses our WeatherBlox Daily Observations layout. Learn more.

Left ArrowRight Arrow

41.86663, -103.66717

Hourly Observations for December 16, 2020

Temp ( °F °C ) Dew Point ( °F °C ) Humidity (%) Winds ( mph kmh ) Pressure ( in mb ) Visibility ( mi km ) Precip ( " mm )
12:53 am 00:53 Clear 14 -10 9 -12.8 80 80 NNW 6 9 29.99 1016 10 16 0.00 0.00
1:53 am 01:53 Clear 17 -8.3 10 -12.2 74 74 NNW 8 13 29.97 1015 10 16 0.00 0.00
2:53 am 02:53 Mostly Cloudy 18 -7.8 11 -11.7 74 74 NNW 8 13 29.99 1016 10 16 0.00 0.00
3:53 am 03:53 Mostly Cloudy 27 -2.8 18 -7.8 69 69 WNW 12 19 29.95 1014 10 16 0.00 0.00
4:53 am 04:53 Cloudy 32 0 19 -7.2 59 59 WNW 17 28 29.96 1015 10 16 0.00 0.00
5:53 am 05:53 Cloudy 32 0 20 -6.7 61 61 WNW 13 20 30.00 1016 10 16 0.00 0.00
6:53 am 06:53 Cloudy 33 0.6 20 -6.7 58 58 WNW 16 26 30.02 1017 10 16 0.00 0.00
7:53 am 07:53 Partly Cloudy 32 0 19 -7.2 59 59 WNW 16 26 30.04 1017 10 16 0.00 0.00
8:53 am 08:53 Mostly Sunny 32 0 20 -6.7 61 61 WNW 13 20 30.08 1019 10 16 0.00 0.00
9:53 am 09:53 Cloudy 35 1.7 22 -5.6 59 59 WNW 15 24 30.11 1020 10 16 0.00 0.00
10:53 am 10:53 Cloudy 38 3.3 23 -5 55 55 WNW 12 19 30.10 1019 10 16 0.00 0.00
11:53 am 11:53 Cloudy 41 5 24 -4.4 51 51 WNW 15 24 30.06 1018 10 16 0.00 0.00
12:53 pm 12:53 Partly Cloudy 40 4.4 25 -3.9 55 55 WNW 12 19 30.06 1018 10 16 0.00 0.00
1:53 pm 13:53 Cloudy 41 5 25 -3.9 53 53 W 10 17 30.05 1018 10 16 0.00 0.00
2:53 pm 14:53 Cloudy 41 5 26 -3.3 55 55 WNW 8 13 30.06 1018 10 16 0.00 0.00
3:53 pm 15:53 Cloudy 36 2.2 26 -3.3 67 67 NW 6 9 30.07 1018 10 16 0.00 0.00
4:53 pm 16:53 Cloudy 36 2.2 23 -5 59 59 WNW 5 7 30.06 1018 10 16 0.00 0.00
5:53 pm 17:53 Cloudy 33 0.6 24 -4.4 70 70 W 5 7 30.09 1019 10 16 0.00 0.00
6:53 pm 18:53 Cloudy 32 0 25 -3.9 75 75 W 3 6 30.08 1019 10 16 0.00 0.00
7:53 pm 19:53 Clear 28 -2.2 22 -5.6 78 78 N 3 6 30.11 1020 10 16 0.00 0.00
8:53 pm 20:53 Mostly Clear 27 -2.8 19 -7.2 72 72 NW 6 9 30.12 1020 10 16 0.00 0.00
9:53 pm 21:53 Clear 24 -4.4 18 -7.8 77 77 NNW 6 9 30.12 1020 10 16 0.00 0.00
10:53 pm 22:53 Clear 19 -7.2 14 -10 81 81 Calm 30.14 1021 10 16 0.00 0.00
11:53 pm 23:53 Clear 21 -6.1 15 -9.4 78 78 NNW 6 9 30.13 1020 10 16 0.00 0.00

Powered by AerisWeather